EW6058 Weather Reports


Display with metric or nautical units.
time (UTC)temp
F
wind
direction
speed
MPH
gust
MPH
rain 1hr
in
rain 24hr
in
rain mn
in
humidity
%
barometer
mb
20260831034010 68 203 0.0 0.0 0.08 0.08 0.08 94 1017.6
20260831033510 68 203 0.0 0.0 0.07 0.07 0.07 93 1017.6
20260831033018 68 203 0.0 0.0 0.06 0.06 0.06 92 1017.8
20260831032513 68 203 0.0 0.0 0.05 0.05 0.05 92 1017.9
20260831032012 69 203 0.0 0.0 0.04 0.04 0.04 91 1018.0
20260831031525 69 208 0.0 0.0 0.04 0.04 0.04 92 1018.0
20260831031017 70 208 0.0 0.0 0.03 0.03 0.03 93 1018.2
20260831030513 70 208 0.0 0.0 0.02 0.02 0.02 92 1018.1
20260831030030 70 208 0.0 0.0 0.01 0.01 0.01 92 1018.0
20260831025516 70 208 0.0 0.0 0.00 0.00 0.00 91 1018.0
20260831025019 70 214 0.0 0.0 0.00 0.00 0.00 91 1017.9
20260831024529 70 213 0.0 0.0 0.00 0.00 0.00 91 1017.8
20260831024018 70 210 0.0 0.0 0.00 0.00 0.00 90 1017.8
20260831023516 71 210 0.0 0.0 0.00 0.00 0.00 90 1017.9
20260831023039 71 210 0.0 0.0 0.00 0.00 0.00 89 1017.9
20260831022513 71 210 0.0 0.0 0.00 0.00 0.00 89 1018.0
20260831022010 71 210 0.0 0.0 0.00 0.00 0.00 88 1018.0
20260831021539 71 211 0.0 0.0 0.00 0.00 0.00 88 1018.0
20260831021011 71 211 0.0 0.0 0.00 0.00 0.00 87 1018.0
20260831020514 71 217 0.0 0.0 0.00 0.00 0.00 87 1017.9
20260831020029 71 214 0.0 0.0 0.00 0.00 0.00 87 1017.9
20260831015519 71 212 0.0 0.0 0.00 0.00 0.00 87 1017.9
20260831015017 71 212 0.0 0.0 0.00 0.00 0.00 87 1017.8
20260831014531 71 212 0.0 0.0 0.00 0.00 0.00 87 1017.8
20260831014016 71 214 0.0 0.0 0.00 0.00 0.00 87 1017.9
20260831013518 71 214 0.0 0.0 0.00 0.00 0.00 87 1017.9
20260831013032 71 214 0.0 0.0 0.00 0.00 0.00 87 1017.9
20260831012518 71 195 0.0 0.0 0.00 0.00 0.00 87 1017.9
20260831012016 71 189 0.0 0.0 0.00 0.00 0.00 87 1017.8
20260831011515 71 192 0.0 0.0 0.00 0.00 0.00 87 1017.8
20260831011012 71 194 0.0 0.0 0.00 0.00 0.00 86 1017.8
20260831010512 72 190 0.0 0.0 0.00 0.00 0.00 86 1017.8
20260831010041 72 196 0.0 0.0 0.00 0.00 0.00 86 1017.7
20260831005515 72 207 0.0 0.0 0.00 0.00 0.00 86 1017.8
20260831005014 72 197 0.0 0.0 0.00 0.00 0.00 85 1017.8
20260831004528 72 196 0.0 0.0 0.00 0.00 0.00 85 1017.9
20260831004015 72 205 0.0 0.0 0.00 0.00 0.00 84 1017.9
20260831003518 72 210 0.0 0.0 0.00 0.00 0.00 84 1017.8
20260831003030 72 216 0.0 0.0 0.00 0.00 0.00 83 1017.8
20260831002516 71 181 0.0 0.0 0.00 0.00 0.00 82 1017.7
20260831002012 71 199 0.0 0.0 0.00 0.00 0.00 82 1017.7
20260831001527 72 199 0.0 0.0 0.00 0.00 0.00 82 1017.6
20260831001010 71 195 0.0 0.0 0.00 0.00 0.00 82 1017.6
20260831000511 71 198 0.0 0.0 0.00 0.00 0.00 82 1017.6
20260831000020 71 200 0.0 0.0 0.00 0.00 0.00 82 1017.5
20260830235514 71 198 0.0 0.0 0.00 0.00 0.00 82 1017.4
20260830235013 71 198 0.0 0.0 0.00 0.00 0.00 82 1017.4
20260830234529 71 200 0.0 0.0 0.00 0.00 0.00 82 1017.5
20260830234002 71 211 0.0 0.0 0.00 0.00 0.00 82 1017.6
20260830233503 71 198 0.0 0.0 0.00 0.00 0.00 82 1017.5
20260830233008 71 198 0.0 0.0 0.00 0.00 0.00 82 1017.5
20260830232504 71 197 0.0 0.0 0.00 0.00 0.00 82 1017.5
20260830232008 71 207 0.0 0.0 0.00 0.00 0.00 81 1017.5
20260830231515 71 207 0.0 0.0 0.00 0.00 0.00 81 1017.5
20260830231010 71 207 0.0 0.0 0.00 0.00 0.00 81 1017.4
20260830230508 71 195 0.0 0.0 0.00 0.00 0.00 81 1017.5
20260830230018 71 195 0.0 0.0 0.00 0.00 0.00 80 1017.5
20260830225512 71 210 0.0 0.0 0.00 0.00 0.00 81 1017.6
20260830225012 71 210 0.0 0.0 0.00 0.00 0.00 80 1017.6
20260830224524 71 210 0.0 0.0 0.00 0.00 0.00 80 1017.8
20260830224014 71 210 0.0 0.0 0.00 0.00 0.00 80 1017.7
20260830223516 71 205 0.0 0.0 0.00 0.00 0.00 80 1017.7
20260830223007 71 203 0.0 0.0 0.00 0.00 0.00 80 1017.8
20260830222504 72 203 0.0 0.0 0.00 0.00 0.00 80 1017.9
20260830222003 72 203 0.0 0.0 0.00 0.00 0.00 80 1017.9
20260830221508 72 215 0.0 0.0 0.00 0.00 0.00 79 1018.0
20260830221008 72 208 0.0 0.0 0.00 0.00 0.00 78 1017.9
20260830220508 72 210 0.0 0.0 0.00 0.00 0.00 77 1018.0
20260830220014 72 215 0.0 0.0 0.00 0.00 0.00 78 1018.0
20260830215510 72 215 0.0 0.0 0.00 0.00 0.00 77 1018.0
20260830215012 72 211 0.0 0.0 0.00 0.00 0.00 77 1018.0
20260830214522 72 211 0.0 0.0 0.00 0.00 0.00 77 1017.9
20260830214011 72 211 0.0 0.0 0.00 0.00 0.00 77 1017.9
20260830213517 72 211 0.0 0.0 0.00 0.00 0.00 76 1017.9
20260830213028 72 211 0.0 0.0 0.00 0.00 0.00 76 1017.9
20260830212516 72 212 0.0 0.0 0.00 0.00 0.00 76 1017.9
20260830212016 72 212 0.0 0.0 0.00 0.00 0.00 75 1018.0
20260830211516 72 198 0.0 0.0 0.00 0.00 0.00 75 1018.0
20260830211006 73 198 0.0 0.0 0.00 0.00 0.00 74 1018.1
20260830210508 73 198 0.0 0.0 0.00 0.00 0.00 73 1018.1
20260830210014 73 201 0.0 0.0 0.00 0.00 0.00 73 1018.1
20260830205513 73 202 0.0 0.0 0.00 0.00 0.00 75 1018.1
20260830205011 73 202 0.0 0.0 0.00 0.00 0.00 74 1018.0
20260830204515 73 202 0.0 0.0 0.00 0.00 0.00 77 1018.0
20260830204012 73 202 0.0 0.0 0.00 0.00 0.00 78 1018.1
20260830203512 73 214 0.0 0.0 0.00 0.00 0.00 78 1018.1
20260830203021 73 222 0.0 0.0 0.00 0.00 0.00 77 1018.1
20260830202515 73 199 0.0 0.0 0.00 0.00 0.00 76 1018.2
20260830202016 73 204 0.0 0.0 0.00 0.00 0.00 76 1018.2
20260830201531 74 204 0.0 0.0 0.00 0.00 0.00 76 1018.2
20260830201015 74 214 0.0 0.0 0.00 0.00 0.00 75 1018.2
20260830200518 74 183 0.0 0.0 0.00 0.00 0.00 75 1018.3
20260830200007 74 184 0.0 0.0 0.00 0.00 0.00 74 1018.3
20260830195507 74 209 0.0 0.0 0.00 0.00 0.00 73 1018.3
20260830195009 74 214 0.0 0.0 0.00 0.00 0.00 73 1018.3
20260830194515 74 204 0.0 0.0 0.00 0.00 0.00 72 1018.4
20260830194011 74 196 0.0 0.0 0.00 0.00 0.00 71 1018.4
20260830193511 75 200 0.0 0.0 0.00 0.00 0.00 72 1018.4
20260830193019 75 203 0.0 0.0 0.00 0.00 0.00 71 1018.4
20260830192513 75 192 0.0 0.0 0.00 0.00 0.00 72 1018.5
20260830192014 74 201 0.0 0.0 0.00 0.00 0.00 73 1018.5
20260830191527 74 200 0.0 0.0 0.00 0.00 0.00 73 1018.5
20260830191014 74 203 0.0 0.0 0.00 0.00 0.00 74 1018.5
20260830190516 74 197 0.0 0.0 0.00 0.00 0.00 75 1018.6
20260830190032 74 209 0.0 0.0 0.00 0.00 0.00 75 1018.8
20260830185518 74 219 0.0 0.0 0.00 0.00 0.00 76 1018.9
20260830185018 74 195 0.0 0.0 0.00 0.00 0.00 76 1019.1
20260830184515 74 186 0.0 0.0 0.00 0.00 0.00 77 1019.1
20260830184007 74 191 0.0 0.0 0.00 0.00 0.00 78 1019.1
20260830183511 74 205 0.0 0.0 0.00 0.00 0.00 77 1019.2
20260830183018 74 212 0.0 0.0 0.00 0.00 0.00 78 1019.2
20260830182512 74 199 0.0 0.0 0.00 0.00 0.00 77 1019.4
20260830182014 74 208 0.0 0.0 0.00 0.00 0.00 77 1019.4
20260830181535 74 172 0.0 0.0 0.00 0.00 0.00 75 1019.5
20260830181015 74 195 0.0 0.0 0.00 0.00 0.00 74 1019.6
20260830180515 75 183 0.0 0.0 0.00 0.00 0.00 73 1019.6
20260830180047 75 181 0.0 0.0 0.00 0.00 0.00 74 1019.7
20260830175514 75 200 0.0 0.0 0.00 0.00 0.00 73 1019.7
20260830175016 74 181 0.0 0.0 0.00 0.00 0.00 73 1019.8
20260830174533 74 205 0.0 0.0 0.00 0.00 0.00 75 1019.8
20260830174021 74 181 0.0 0.0 0.00 0.00 0.00 77 1019.8
20260830173518 74 184 0.0 0.0 0.00 0.00 0.00 78 1019.7
20260830173021 73 209 0.0 0.0 0.00 0.00 0.00 79 1019.8
20260830172511 73 184 0.0 0.0 0.00 0.00 0.00 78 1019.8
20260830172011 74 200 0.0 0.0 0.00 0.00 0.00 78 1019.9
20260830171521 74 170 0.0 0.0 0.00 0.00 0.00 78 1019.8
20260830171014 74 194 0.0 0.0 0.00 0.00 0.00 78 1019.8
20260830170516 74 175 0.0 0.0 0.00 0.00 0.00 78 1019.9
20260830170028 74 200 0.0 0.0 0.00 0.00 0.00 78 1019.8
20260830165514 74 177 0.0 0.0 0.00 0.00 0.00 79 1019.8
20260830165016 74 186 0.0 0.0 0.00 0.00 0.00 79 1019.8
20260830164528 74 188 0.0 0.0 0.00 0.00 0.00 79 1019.8
20260830164018 74 193 0.0 0.0 0.00 0.00 0.00 81 1019.9
20260830163519 74 205 0.0 0.0 0.00 0.00 0.00 80 1019.9
20260830163033 74 177 0.0 0.0 0.00 0.00 0.00 80 1019.9
20260830162519 74 177 0.0 0.0 0.00 0.00 0.00 80 1019.9
20260830162013 74 201 0.0 0.0 0.00 0.00 0.00 80 1019.9
20260830161518 74 198 0.0 0.0 0.00 0.00 0.00 80 1020.0
20260830161012 74 212 0.0 0.0 0.00 0.00 0.00 80 1020.1
20260830160514 74 196 0.0 0.0 0.00 0.00 0.00 81 1020.1
20260830160032 74 191 0.0 0.0 0.00 0.00 0.00 81 1020.2
20260830155519 73 191 0.0 0.0 0.00 0.00 0.00 80 1020.3
20260830155014 73 197 0.0 0.0 0.00 0.00 0.00 82 1020.4
20260830154532 73 207 0.0 0.0 0.00 0.00 0.00 82 1020.5
20260830154016 73 197 0.0 0.0 0.00 0.00 0.00 81 1020.5
20260830153518 73 193 0.0 0.0 0.00 0.00 0.00 80 1020.5
20260830153033 73 181 0.0 0.0 0.00 0.00 0.00 82 1020.5
20260830152516 73 196 0.0 0.0 0.00 0.00 0.00 82 1020.6
20260830152009 73 186 0.0 0.0 0.00 0.00 0.00 83 1020.7
20260830151519 73 183 0.0 0.0 0.00 0.00 0.00 83 1020.7
20260830151012 73 192 0.0 0.0 0.00 0.00 0.00 83 1020.9
20260830150512 72 205 0.0 0.0 0.00 0.00 0.00 84 1020.8
20260830150019 72 191 0.0 0.0 0.00 0.00 0.00 84 1020.8
20260830145512 72 188 0.0 0.0 0.00 0.00 0.00 85 1020.8
20260830145015 72 197 0.0 0.0 0.00 0.00 0.00 85 1020.9
20260830144503 72 210 0.0 0.0 0.00 0.00 0.00 86 1020.9
20260830144005 71 208 0.0 0.0 0.00 0.00 0.00 85 1021.0
20260830143504 71 190 0.0 0.0 0.00 0.00 0.00 85 1021.0
20260830143006 72 213 0.0 0.0 0.00 0.00 0.00 84 1021.1
20260830142506 72 220 0.0 0.0 0.00 0.00 0.00 84 1021.0
20260830142009 72 154 0.0 0.0 0.00 0.00 0.00 85 1021.2
20260830141511 72 185 0.0 0.0 0.00 0.00 0.00 85 1021.1
20260830141009 72 188 0.0 0.0 0.00 0.00 0.00 85 1021.1
20260830140509 72 180 0.0 0.0 0.00 0.00 0.00 86 1021.1
20260830140018 72 180 0.0 0.0 0.00 0.00 0.00 85 1021.3
20260830135514 71 180 0.0 0.0 0.00 0.00 0.00 85 1021.4
20260830135016 71 186 0.0 0.0 0.00 0.00 0.00 85 1021.4
20260830134537 71 191 0.0 0.0 0.00 0.00 0.00 86 1021.5
20260830134016 71 191 0.0 0.0 0.00 0.00 0.00 85 1021.5
20260830133505 71 192 0.0 0.0 0.00 0.00 0.00 85 1021.6
20260830133006 71 218 0.0 0.0 0.00 0.00 0.00 85 1021.6
20260830132504 71 197 0.0 0.0 0.00 0.00 0.00 85 1021.7
20260830132003 71 203 0.0 0.0 0.00 0.00 0.00 85 1021.8
20260830131510 71 205 0.0 0.0 0.00 0.00 0.00 85 1021.7
20260830131006 71 202 0.0 0.0 0.00 0.00 0.00 85 1021.7
20260830130509 70 202 0.0 0.0 0.00 0.00 0.00 86 1021.6
20260830130014 70 219 0.0 0.0 0.00 0.00 0.00 86 1021.6
20260830125512 70 219 0.0 0.0 0.00 0.00 0.00 86 1021.7
20260830125013 70 224 0.0 0.0 0.00 0.00 0.00 86 1021.7
20260830124522 70 224 0.0 0.0 0.00 0.00 0.00 86 1021.7
20260830124015 70 245 0.0 0.0 0.00 0.00 0.00 86 1021.8
20260830123512 70 245 0.0 0.0 0.00 0.00 0.00 86 1021.8
20260830123027 70 245 0.0 0.0 0.00 0.00 0.00 86 1021.8
20260830122516 70 259 0.0 0.0 0.00 0.00 0.00 87 1021.8
20260830122005 69 260 0.0 0.0 0.00 0.00 0.00 87 1021.8
20260830121505 69 260 0.0 0.0 0.00 0.00 0.00 87 1021.8
20260830121007 69 260 0.0 0.0 0.00 0.00 0.00 87 1021.8
20260830120507 69 260 0.0 0.0 0.00 0.00 0.00 87 1021.7
20260830120013 69 260 0.0 0.0 0.00 0.00 0.00 86 1021.7
20260830115509 69 260 0.0 0.0 0.00 0.00 0.00 85 1021.7
20260830115014 69 260 0.0 0.0 0.00 0.00 0.00 84 1021.6
20260830114516 69 260 0.0 0.0 0.00 0.00 0.00 84 1021.6
20260830114010 69 260 0.0 0.0 0.00 0.00 0.00 84 1021.6
20260830113514 69 260 0.0 0.0 0.00 0.00 0.00 85 1021.6
20260830113026 68 260 0.0 0.0 0.00 0.00 0.00 85 1021.6
20260830112516 68 260 0.0 0.0 0.00 0.00 0.00 86 1021.5
20260830112016 68 260 0.0 0.0 0.00 0.00 0.00 86 1021.6
20260830111530 67 260 0.0 0.0 0.00 0.00 0.00 86 1021.6
20260830111016 67 260 0.0 0.0 0.00 0.00 0.00 87 1021.7
20260830110506 66 260 0.0 0.0 0.00 0.00 0.00 89 1021.7
20260830110009 66 260 0.0 0.0 0.00 0.00 0.00 90 1021.7
20260830105510 65 260 0.0 0.0 0.00 0.00 0.00 92 1021.7
20260830105012 65 300 0.0 0.0 0.00 0.00 0.00 94 1021.8
20260830104516 64 300 0.0 0.0 0.00 0.00 0.00 93 1021.7
20260830104012 64 300 0.0 0.0 0.00 0.00 0.00 93 1021.7
20260830103512 64 300 0.0 0.0 0.00 0.00 0.00 93 1021.7
20260830103023 64 300 0.0 0.0 0.00 0.00 0.00 93 1021.6
20260830102514 64 300 0.0 0.0 0.00 0.00 0.00 92 1021.7
20260830102015 64 300 0.0 0.0 0.00 0.00 0.00 92 1021.8
20260830101527 64 300 0.0 0.0 0.00 0.00 0.00 92 1021.8
20260830101015 63 300 0.0 0.0 0.00 0.00 0.00 92 1021.8
20260830100518 63 300 0.0 0.0 0.00 0.00 0.00 91 1021.9
20260830100031 64 300 0.0 0.0 0.00 0.00 0.00 91 1021.8
20260830095517 64 300 0.0 0.0 0.00 0.00 0.00 91 1021.7
20260830095008 64 300 0.0 0.0 0.00 0.00 0.00 91 1021.8
20260830094511 64 300 0.0 0.0 0.00 0.00 0.00 91 1021.8
20260830094009 64 300 0.0 0.0 0.00 0.00 0.00 91 1021.8
20260830093509 64 300 0.0 0.0 0.00 0.00 0.00 90 1021.8
20260830093016 64 300 0.0 0.0 0.00 0.00 0.00 90 1021.7
20260830092513 64 300 0.0 0.0 0.00 0.00 0.00 90 1021.8
20260830092014 64 300 0.0 0.0 0.00 0.00 0.00 91 1021.9
20260830091527 64 300 0.0 0.0 0.00 0.00 0.00 91 1021.9
20260830091016 64 300 0.0 0.0 0.00 0.00 0.00 92 1022.0
20260830090517 64 300 0.0 0.0 0.00 0.00 0.00 93 1022.1
20260830090030 63 300 0.0 0.0 0.00 0.00 0.00 93 1022.1
20260830085517 63 300 0.0 0.0 0.00 0.00 0.00 94 1022.2
20260830085016 63 300 0.0 0.0 0.00 0.00 0.00 94 1022.2
20260830084530 63 300 0.0 0.0 0.00 0.00 0.00 94 1022.3
20260830084018 63 300 0.0 0.0 0.00 0.00 0.00 94 1022.3
20260830083507 62 300 0.0 0.0 0.00 0.00 0.00 94 1022.4
20260830083015 62 300 0.0 0.0 0.00 0.00 0.00 93 1022.4
20260830082511 62 300 0.0 0.0 0.00 0.00 0.00 93 1022.4
20260830082013 62 300 0.0 0.0 0.00 0.00 0.00 93 1022.3
20260830081525 62 300 0.0 0.0 0.00 0.00 0.00 93 1022.3
20260830081014 62 300 0.0 0.0 0.00 0.00 0.00 92 1022.2
20260830080512 62 300 0.0 0.0 0.00 0.00 0.00 92 1022.2
20260830080028 62 300 0.0 0.0 0.00 0.00 0.00 92 1022.2
20260830075515 62 300 0.0 0.0 0.00 0.00 0.00 92 1022.2
20260830075019 62 300 0.0 0.0 0.00 0.00 0.00 92 1022.1
20260830074548 62 300 0.0 0.0 0.00 0.00 0.00 92 1022.1
20260830074020 62 300 0.0 0.0 0.00 0.00 0.00 92 1022.0
20260830073517 62 300 0.0 0.0 0.00 0.00 0.00 92 1022.0
20260830073032 62 300 0.0 0.0 0.00 0.00 0.00 92 1022.0
20260830072520 62 300 0.0 0.0 0.00 0.00 0.00 92 1022.0
20260830072011 62 300 0.0 0.0 0.00 0.00 0.00 93 1022.0
20260830071518 62 300 0.0 0.0 0.00 0.00 0.00 93 1022.0
20260830071014 62 300 0.0 0.0 0.00 0.00 0.00 93 1022.0
20260830070514 62 300 0.0 0.0 0.00 0.00 0.00 93 1022.1
20260830070023 62 300 0.0 0.0 0.00 0.00 0.00 93 1022.1
20260830065515 61 300 0.0 0.0 0.00 0.00 0.00 93 1022.0
20260830065017 61 300 0.0 0.0 0.00 0.00 0.00 93 1022.0
20260830064534 61 300 0.0 0.0 0.00 0.00 0.00 93 1022.1
20260830064020 61 300 0.0 0.0 0.00 0.00 0.00 93 1022.1
20260830063514 61 300 0.0 0.0 0.00 0.00 0.00 93 1022.1
20260830063032 61 300 0.0 0.0 0.00 0.00 0.00 93 1022.1
20260830062515 61 300 0.0 0.0 0.00 0.00 0.00 93 1022.2
20260830062007 61 300 0.0 0.0 0.00 0.00 0.00 93 1022.1
20260830061523 61 300 0.0 0.0 0.00 0.00 0.00 93 1022.1
20260830061011 61 300 0.0 0.0 0.00 0.00 0.00 93 1022.1
20260830060513 61 300 0.0 0.0 0.00 0.00 0.00 93 1022.0
20260830060021 61 300 0.0 0.0 0.00 0.00 0.00 93 1022.0
20260830055516 61 300 0.0 0.0 0.00 0.00 0.00 93 1022.0
20260830055003 62 300 0.0 0.0 0.00 0.00 0.00 93 1021.9
20260830054510 62 300 0.0 0.0 0.00 0.00 0.00 93 1022.0
20260830054002 62 300 0.0 0.0 0.00 0.00 0.00 93 1022.0
20260830053507 62 300 0.0 0.0 0.00 0.00 0.00 93 1022.0
20260830053003 62 300 0.0 0.0 0.00 0.00 0.00 93 1021.9
20260830052505 62 300 0.0 0.0 0.00 0.00 0.00 93 1021.9
20260830052007 62 300 0.0 0.0 0.00 0.00 0.00 93 1022.0
20260830051527 62 300 0.0 0.0 0.00 0.00 0.00 93 1022.0
20260830051019 62 300 0.0 0.0 0.00 0.00 0.00 93 1022.0
20260830050510 62 300 0.0 0.0 0.00 0.00 0.00 93 1021.9
20260830050018 62 300 0.0 0.0 0.00 0.00 0.00 93 1022.0
20260830045516 62 300 0.0 0.0 0.00 0.00 0.00 93 1022.1
20260830045014 61 300 0.0 0.0 0.00 0.00 0.00 93 1022.2
20260830044527 61 300 0.0 0.0 0.00 0.00 0.00 93 1022.2
20260830044016 61 300 0.0 0.0 0.00 0.00 0.00 93 1022.2
20260830043501 61 300 0.0 0.0 0.00 0.00 0.00 93 1022.2
20260830043006 62 300 0.0 0.0 0.00 0.00 0.00 93 1022.3
20260830042505 62 300 0.0 0.0 0.00 0.00 0.00 93 1022.2
20260830042006 62 300 0.0 0.0 0.00 0.00 0.00 93 1022.2
20260830041523 62 300 0.0 0.0 0.00 0.00 0.00 93 1022.1
20260830041009 62 300 0.0 0.0 0.00 0.00 0.00 93 1022.1
20260830040508 62 300 0.0 0.0 0.00 0.00 0.00 93 1022.0
20260830040015 62 300 0.0 0.0 0.00 0.00 0.00 92 1022.0
20260830035510 62 300 0.0 0.0 0.00 0.00 0.00 92 1022.0
20260830035012 62 300 0.0 0.0 0.00 0.00 0.00 92 1021.9
20260830034519 62 300 0.0 0.0 0.00 0.00 0.00 92 1022.0